This demonstration page uses our WeatherBlox Daily Observations layout. Learn more.

Left ArrowRight Arrow

Hourly Observations for June 18, 2015

Temp ( °F °C ) Dew Point ( °F °C ) Humidity (%) Winds ( mph kmh ) Pressure ( in mb ) Visibility ( mi km ) Precip ( " mm )
12:15 am 00:15 Cloudy 68 20 68 20 100 100 NW 3 6 30.06 1018 7 11 0.00 0.00
12:35 am 00:35 Cloudy with Light Rain 68 20 68 20 100 100 Calm 30.06 1018 5 8 0.01 0.25
12:55 am 00:55 Cloudy with Rain 68 20 68 20 100 100 Calm 30.06 1018 5 8 0.01 0.25
1:15 am 01:15 Mostly Cloudy 68 20 68 20 100 100 Calm 30.06 1018 7 11 0.00 0.00
1:35 am 01:35 Cloudy 68 20 68 20 100 100 Calm 30.06 1018 7 11 0.00 0.00
1:55 am 01:55 Cloudy with Mist and Fog 68 20 68 20 100 100 Calm 30.06 1018 5 8 0.00 0.00
2:15 am 02:15 Cloudy with Mist and Fog 68 20 68 20 100 100 Calm 30.06 1018 5 8 0.00 0.00
2:35 am 02:35 Cloudy with Light Rain 68 20 68 20 100 100 NNW 7 11 30.06 1018 3 5 0.02 0.51
2:55 am 02:55 Cloudy with Mist and Fog 68 20 68 20 100 100 W 5 7 30.03 1017 5 8 0.02 0.51
3:15 am 03:15 Cloudy 68 20 68 20 100 100 Calm 30.03 1017 7 11 0.00 0.00
3:35 am 03:35 Cloudy 70 21 70 21 100 100 Calm 30.03 1017 7 11 0.00 0.00
3:55 am 03:55 Cloudy 70 21 70 21 100 100 Calm 30.03 1017 7 11 0.00 0.00
4:15 am 04:15 Cloudy 70 21 70 21 100 100 SSE 3 6 30.03 1017 7 11 0.00 0.00
4:35 am 04:35 Cloudy with Mist and Fog 70 21 70 21 100 100 Calm 30.03 1017 5 8 0.00 0.00
4:55 am 04:55 Cloudy with Mist and Fog 70 21 70 21 100 100 Calm 30.03 1017 5 8 0.00 0.00
5:15 am 05:15 Cloudy 70 21 70 21 100 100 S 3 6 30.03 1017 7 11 0.00 0.00
5:35 am 05:35 Cloudy 70 21 70 21 100 100 Calm 30.03 1017 7 11 0.00 0.00
5:55 am 05:55 Cloudy with Mist and Fog 70 21 70 21 100 100 Calm 30.03 1017 5 8 0.00 0.00
6:15 am 06:15 Cloudy with Mist and Fog 70 21 70 21 100 100 Calm 30.03 1017 4 6 0.00 0.00
6:35 am 06:35 Cloudy with Mist and Fog 70 21 70 21 100 100 WNW 6 9 30.03 1017 3 5 0.00 0.00
6:55 am 06:55 Cloudy with Mist and Fog 70 21 70 21 100 100 NW 6 9 30.03 1017 3 5 0.00 0.00
7:15 am 07:15 Cloudy with Mist and Fog 70 21 70 21 100 100 Calm 30.03 1017 3 5 0.00 0.00
7:35 am 07:35 Cloudy with Mist and Fog 70 21 70 21 100 100 Calm 30.03 1017 4 6 0.00 0.00
7:55 am 07:55 Cloudy with Mist and Fog 72 22 72 22 100 100 Calm 30.03 1017 5 8 0.00 0.00
8:15 am 08:15 Cloudy 72 22 72 22 100 100 WNW 7 11 30.03 1017 7 11 0.00 0.00
8:35 am 08:35 Mostly Cloudy 73 23 73 23 100 100 NW 7 11 30.06 1018 7 11 0.00 0.00
8:55 am 08:55 Cloudy 73 23 72 22 94 94 WNW 6 9 30.06 1018 10 16 0.00 0.00
9:15 am 09:15 Cloudy 73 23 73 23 100 100 WNW 9 15 30.06 1018 10 16 0.00 0.00
9:35 am 09:35 Cloudy 73 23 73 23 100 100 W 6 9 30.06 1018 10 16 0.00 0.00
9:55 am 09:55 Mostly Cloudy 77 25 73 23 89 89 W 6 9 30.06 1018 10 16 0.00 0.00
10:15 am 10:15 Cloudy 77 25 73 23 89 89 W 6 9 30.06 1018 10 16 0.00 0.00
10:35 am 10:35 Partly Cloudy 79 26 73 23 84 84 W 6 9 30.03 1017 10 16 0.00 0.00
10:55 am 10:55 Partly Cloudy 81 27 73 23 79 79 W 5 7 30.03 1017 10 16 0.00 0.00
11:15 am 11:15 Sunny 82 28 73 23 74 74 W 7 11 30.03 1017 10 16 0.00 0.00
11:35 am 11:35 Partly Cloudy 82 28 73 23 74 74 SSW 7 11 30.03 1017 10 16 0.00 0.00
11:55 am 11:55 Partly Cloudy 82 28 73 23 74 74 W 5 7 30.03 1017 10 16 0.00 0.00
12:15 pm 12:15 Partly Cloudy 84 29 73 23 70 70 W 8 13 30.03 1017 10 16 0.00 0.00
12:35 pm 12:35 Partly Cloudy 86 30 73 23 66 66 WSW 6 9 30.03 1017 10 16 0.00 0.00
12:55 pm 12:55 Partly Cloudy 86 30 73 23 66 66 W 5 7 30.03 1017 10 16 0.00 0.00
1:15 pm 13:15 Partly Cloudy 86 30 73 23 66 66 WSW 7 11 30.00 1016 10 16 0.00 0.00
1:35 pm 13:35 Partly Cloudy 88 31 73 23 62 62 W 6 9 29.97 1015 10 16 0.00 0.00
1:55 pm 13:55 Partly Cloudy 88 31 73 23 62 62 SSW 6 9 29.97 1015 10 16 0.00 0.00
2:15 pm 14:15 Partly Cloudy 88 31 73 23 62 62 Calm 29.97 1015 10 16 0.00 0.00
2:35 pm 14:35 Mostly Cloudy 88 31 73 23 62 62 WSW 7 11 29.94 1014 10 16 0.00 0.00
2:55 pm 14:55 Mostly Cloudy 90 32 73 23 59 59 SW 9 15 29.94 1014 10 16 0.00 0.00
3:15 pm 15:15 Partly Cloudy 91 33 75 24 59 59 WSW 8 13 29.94 1014 10 16 0.00 0.00
3:35 pm 15:35 Partly Cloudy 91 33 75 24 59 59 S 14 22 29.91 1013 10 16 0.00 0.00
3:55 pm 15:55 Mostly Cloudy with Nearby Thunderstorms 88 31 73 23 62 62 S 10 17 29.91 1013 10 16 0.00 0.00
4:15 pm 16:15 Cloudy 82 28 77 25 84 84 NNW 13 20 29.97 1015 5 8 0.02 0.51
4:35 pm 16:35 Mostly Cloudy with Thunderstorms 79 26 77 25 94 94 SSW 7 11 29.94 1014 10 16 0.12 3.05
4:55 pm 16:55 Partly Cloudy with Nearby Thunderstorms 81 27 75 24 84 84 NE 5 7 29.91 1013 10 16 0.12 3.05
5:15 pm 17:15 Sunny 81 27 73 23 79 79 ESE 7 11 29.94 1014 10 16 0.00 0.00
5:35 pm 17:35 Sunny 81 27 75 24 84 84 E 7 11 29.94 1014 10 16 0.00 0.00
5:55 pm 17:55 Sunny 81 27 73 23 79 79 E 5 7 29.94 1014 10 16 0.00 0.00
6:15 pm 18:15 Partly Cloudy 81 27 75 24 84 84 SSE 8 13 29.94 1014 10 16 0.00 0.00
6:35 pm 18:35 Partly Cloudy 81 27 73 23 79 79 SE 3 6 29.94 1014 10 16 0.00 0.00
6:55 pm 18:55 Sunny 79 26 75 24 89 89 SSE 3 6 29.94 1014 10 16 0.00 0.00
7:15 pm 19:15 Sunny 79 26 75 24 89 89 SSW 8 13 29.94 1014 10 16 0.00 0.00
7:35 pm 19:35 Sunny 79 26 75 24 89 89 ESE 3 6 29.94 1014 10 16 0.00 0.00
7:55 pm 19:55 Sunny 79 26 75 24 89 89 SSE 3 6 29.94 1014 10 16 0.00 0.00
8:15 pm 20:15 Sunny 79 26 77 25 94 94 S 3 6 29.94 1014 10 16 0.00 0.00
8:35 pm 20:35 Sunny 77 25 75 24 94 94 SSW 12 19 29.94 1014 10 16 0.00 0.00
8:55 pm 20:55 Clear 77 25 75 24 94 94 Calm 29.94 1014 10 16 0.00 0.00
9:15 pm 21:15 Partly Cloudy 77 25 75 24 94 94 Calm 29.94 1014 10 16 0.00 0.00
9:35 pm 21:35 Clear 77 25 75 24 94 94 SSW 7 11 29.94 1014 10 16 0.00 0.00
9:55 pm 21:55 Clear 75 24 73 23 94 94 Calm 29.94 1014 10 16 0.00 0.00
10:15 pm 22:15 Partly Cloudy 75 24 75 24 100 100 Calm 29.94 1014 10 16 0.00 0.00
10:35 pm 22:35 Partly Cloudy 77 25 75 24 94 94 NE 5 7 29.94 1014 10 16 0.00 0.00
10:55 pm 22:55 Clear 75 24 73 23 94 94 SW 3 6 29.94 1014 10 16 0.00 0.00
11:15 pm 23:15 Clear 73 23 73 23 100 100 Calm 29.94 1014 10 16 0.00 0.00
11:35 pm 23:35 Clear 73 23 73 23 100 100 SSW 7 11 29.97 1015 10 16 0.00 0.00
11:55 pm 23:55 Clear 73 23 73 23 100 100 Calm 29.97 1015 10 16 0.00 0.00

Powered by AerisWeather